Tracking 32422 objects as of 7-Dec-2025
HD Live streaming from Space Station
objects crossing your sky now

STARLINK-5088

Track STARLINK-5088 now!
10-day predictions
STARLINK-5088 is classified as:


NORAD ID: 54000
Int'l Code: 2022-125AN
Perigee: 546.0 km
Apogee: 547.7 km
Inclination: 53.2 °
Period: 95.4 minutes
Semi major axis: 6917 km
RCS: Unknown
Launch date: October 5, 2022
Source: United States (US)
Launch site: AIR FORCE WESTERN TEST RANGE (AFWTR)
Your satellite tracking list
Your tracking list is empty




NASA's NSSDC Master Catalog

Two Line Element Set (TLE):
1 54000U 22125AN  25340.77758720  .00001545  00000-0  11511-3 0  9995
2 54000  53.2196 261.4049 0001236 103.4117 256.7013 15.08839114175571
Source of the keplerian elements: AFSPC